| time (UTC) | temp C | wind direction | speed KPH | gust KPH | rain 1hr cm | rain 24hr cm | rain mn cm | humidity % | barometer mb |
| 20260906124549 | 23 | 105 | 0.0 | 1.6 | 0.00 | 0.00 | 0.00 | 94 | 1013.3 |
| 20260906123049 | 23 | 105 | 0.0 | 1.6 | 0.00 | 0.00 | 0.00 | 93 | 1013.1 |
| 20260906121549 | 23 | 105 | 0.0 | 1.6 | 0.00 | 0.00 | 0.00 | 93 | 1013.1 |
| 20260906120045 | 23 | 105 | 0.0 | 1.6 | 0.00 | 0.00 | 0.00 | 93 | 1012.9 |
| 20260906114544 | 23 | 105 | 0.0 | 0.0 | 0.00 | 0.00 | 0.00 | 92 | 1012.9 |
| 20260906113042 | 23 | 105 | 0.0 | 1.6 | 0.00 | 0.00 | 0.00 | 92 | 1012.8 |
| 20260906111540 | 23 | 105 | 0.0 | 1.6 | 0.00 | 0.00 | 0.00 | 92 | 1012.7 |
| 20260906110038 | 24 | 105 | 0.0 | 1.6 | 0.00 | 0.00 | 0.00 | 91 | 1012.5 |
| 20260906104536 | 24 | 105 | 0.0 | 1.6 | 0.00 | 0.00 | 0.00 | 91 | 1012.6 |
| 20260906103035 | 24 | 105 | 0.0 | 1.6 | 0.00 | 0.00 | 0.00 | 91 | 1012.5 |
| 20260906101534 | 25 | 105 | 0.0 | 1.6 | 0.00 | 0.00 | 0.00 | 91 | 1012.4 |
| 20260906100039 | 25 | 114 | 0.0 | 3.2 | 0.00 | 0.00 | 0.00 | 91 | 1012.3 |
| 20260906094532 | 25 | 148 | 0.0 | 3.2 | 0.00 | 0.00 | 0.00 | 91 | 1012.1 |
| 20260906093045 | 25 | 101 | 0.0 | 3.2 | 0.00 | 0.00 | 0.00 | 91 | 1012.1 |
| 20260906091530 | 25 | 113 | 0.0 | 3.2 | 0.00 | 0.00 | 0.00 | 91 | 1012.1 |
| 20260906090029 | 25 | 210 | 0.0 | 1.6 | 0.00 | 0.00 | 0.00 | 90 | 1012.0 |
| 20260906084630 | 25 | 172 | 0.0 | 3.2 | 0.00 | 0.00 | 0.00 | 90 | 1011.8 |
| 20260906083026 | 25 | 120 | 0.0 | 4.8 | 0.00 | 0.00 | 0.00 | 90 | 1011.8 |
| 20260906081543 | 25 | 231 | 0.0 | 3.2 | 0.00 | 0.00 | 0.00 | 89 | 1012.0 |
| 20260906080024 | 25 | 153 | 0.0 | 1.6 | 0.00 | 0.00 | 0.00 | 89 | 1012.1 |
| 20260906074523 | 25 | 203 | 0.0 | 3.2 | 0.00 | 0.00 | 0.00 | 88 | 1012.1 |
| 20260906073036 | 25 | 101 | 0.0 | 3.2 | 0.00 | 0.00 | 0.00 | 88 | 1012.1 |
| 20260906071519 | 25 | 257 | 1.6 | 4.8 | 0.00 | 0.00 | 0.00 | 88 | 1012.2 |
| 20260906070027 | 26 | 122 | 0.0 | 1.6 | 0.00 | 0.00 | 0.00 | 87 | 1012.2 |
| 20260906064520 | 26 | 238 | 0.0 | 1.6 | 0.00 | 0.00 | 0.00 | 87 | 1012.0 |
| 20260906063017 | 26 | 120 | 0.0 | 1.6 | 0.00 | 0.00 | 0.00 | 86 | 1012.1 |
| 20260906061515 | 26 | 251 | 0.0 | 3.2 | 0.00 | 0.00 | 0.00 | 85 | 1012.1 |
| 20260906060013 | 26 | 124 | 0.0 | 0.0 | 0.00 | 0.00 | 0.00 | 84 | 1012.5 |
| 20260906054515 | 26 | 105 | 0.0 | 3.2 | 0.00 | 0.00 | 0.00 | 84 | 1012.6 |
| 20260906053009 | 26 | 118 | 0.0 | 4.8 | 0.00 | 0.00 | 0.00 | 83 | 1012.4 |
| 20260906051511 | 27 | 120 | 0.0 | 4.8 | 0.00 | 0.00 | 0.00 | 82 | 1012.4 |
| 20260906050004 | 27 | 107 | 0.0 | 4.8 | 0.00 | 0.00 | 0.00 | 82 | 1012.0 |
| 20260906044503 | 27 | 121 | 0.0 | 4.8 | 0.00 | 0.00 | 0.00 | 81 | 1012.3 |
| 20260906043001 | 27 | 248 | 1.6 | 6.4 | 0.00 | 0.00 | 0.00 | 80 | 1012.0 |
| 20260906041501 | 27 | 243 | 1.6 | 6.4 | 0.00 | 0.00 | 0.00 | 79 | 1012.1 |
| 20260906040115 | 27 | 264 | 0.0 | 3.2 | 0.00 | 0.00 | 0.00 | 78 | 1012.4 |
| 20260906040003 | 27 | 264 | 1.6 | 3.2 | 0.00 | 0.00 | 0.00 | 78 | 1012.5 |
| 20260906034600 | 28 | 148 | 0.0 | 4.8 | 0.00 | 0.00 | 0.00 | 78 | 1012.4 |
| 20260906033059 | 28 | 123 | 0.0 | 4.8 | 0.00 | 0.00 | 0.00 | 77 | 1012.2 |
| 20260906031607 | 28 | 200 | 1.6 | 8.0 | 0.00 | 0.00 | 0.00 | 76 | 1012.2 |
| 20260906030107 | 28 | 120 | 1.6 | 4.8 | 0.00 | 0.00 | 0.00 | 74 | 1012.1 |
| 20260906024557 | 28 | 227 | 0.0 | 4.8 | 0.00 | 0.00 | 0.00 | 73 | 1011.9 |
| 20260906023120 | 29 | 149 | 1.6 | 4.8 | 0.00 | 0.00 | 0.00 | 72 | 1011.8 |
| 20260906021557 | 29 | 118 | 1.6 | 8.0 | 0.00 | 0.00 | 0.00 | 71 | 1011.7 |
| 20260906020057 | 30 | 151 | 3.2 | 8.0 | 0.00 | 0.00 | 0.00 | 70 | 1011.5 |
| 20260906014620 | 30 | 99 | 1.6 | 9.7 | 0.00 | 0.00 | 0.00 | 69 | 1011.5 |
| 20260906013058 | 30 | 120 | 1.6 | 9.7 | 0.00 | 0.00 | 0.00 | 67 | 1011.0 |
| 20260906011557 | 30 | 224 | 4.8 | 11.3 | 0.00 | 0.00 | 0.00 | 66 | 1010.8 |
| 20260906010054 | 31 | 218 | 3.2 | 9.7 | 0.00 | 0.00 | 0.00 | 64 | 1010.7 |
| 20260906004607 | 31 | 177 | 1.6 | 9.7 | 0.00 | 0.00 | 0.00 | 63 | 1010.7 |
| 20260906003054 | 32 | 100 | 3.2 | 14.5 | 0.00 | 0.00 | 0.00 | 62 | 1010.8 |
| 20260906001552 | 32 | 146 | 6.4 | 16.1 | 0.00 | 0.00 | 0.00 | 60 | 1010.7 |
| 20260906000104 | 33 | 167 | 3.2 | 19.3 | 0.00 | 0.00 | 0.00 | 56 | 1010.4 |
| 20260905234556 | 35 | 127 | 3.2 | 9.7 | 0.00 | 0.00 | 0.00 | 54 | 1010.2 |
| 20260905233051 | 36 | 100 | 1.6 | 6.4 | 0.00 | 0.00 | 0.00 | 47 | 1010.0 |
| 20260905231549 | 37 | 113 | 0.0 | 6.4 | 0.00 | 0.00 | 0.00 | 45 | 1009.9 |
| 20260905230049 | 38 | 116 | 0.0 | 9.7 | 0.00 | 0.00 | 0.00 | 45 | 1010.0 |
| 20260905224602 | 38 | 170 | 1.6 | 6.4 | 0.00 | 0.00 | 0.00 | 42 | 1010.0 |
| 20260905223047 | 38 | 220 | 1.6 | 6.4 | 0.00 | 0.00 | 0.00 | 42 | 1009.8 |
| 20260905221546 | 38 | 219 | 0.0 | 1.6 | 0.00 | 0.00 | 0.00 | 45 | 1009.8 |
| 20260905220045 | 38 | 324 | 0.0 | 3.2 | 0.00 | 0.00 | 0.00 | 44 | 1010.0 |
| 20260905214546 | 38 | 217 | 0.0 | 4.8 | 0.00 | 0.00 | 0.00 | 43 | 1010.1 |
| 20260905213044 | 38 | 309 | 1.6 | 4.8 | 0.00 | 0.00 | 0.00 | 46 | 1010.2 |
| 20260905211542 | 38 | 127 | 0.0 | 4.8 | 0.00 | 0.00 | 0.00 | 43 | 1010.4 |
| 20260905210038 | 38 | 208 | 0.0 | 6.4 | 0.00 | 0.00 | 0.00 | 47 | 1010.6 |
| 20260905204534 | 37 | 212 | 1.6 | 6.4 | 0.00 | 0.00 | 0.00 | 46 | 1010.7 |
| 20260905203030 | 37 | 202 | 0.0 | 3.2 | 0.00 | 0.00 | 0.00 | 47 | 1011.0 |
| 20260905201528 | 37 | 131 | 0.0 | 4.8 | 0.00 | 0.00 | 0.00 | 49 | 1011.1 |
| 20260905200034 | 36 | 86 | 1.6 | 6.4 | 0.00 | 0.00 | 0.00 | 50 | 1011.3 |
| 20260905194525 | 37 | 297 | 0.0 | 3.2 | 0.00 | 0.00 | 0.00 | 49 | 1011.6 |
| 20260905193023 | 36 | 113 | 1.6 | 4.8 | 0.00 | 0.00 | 0.00 | 50 | 1011.8 |
| 20260905191519 | 36 | 224 | 0.0 | 4.8 | 0.00 | 0.00 | 0.00 | 50 | 1012.2 |
| 20260905190039 | 36 | 289 | 0.0 | 4.8 | 0.00 | 0.00 | 0.00 | 51 | 1012.4 |
| 20260905184518 | 36 | 159 | 1.6 | 8.0 | 0.00 | 0.00 | 0.00 | 51 | 1012.7 |
| 20260905183017 | 36 | 134 | 1.6 | 4.8 | 0.00 | 0.00 | 0.00 | 51 | 1012.9 |
| 20260905181516 | 36 | 104 | 0.0 | 3.2 | 0.00 | 0.00 | 0.00 | 53 | 1013.1 |
| 20260905180017 | 36 | 137 | 1.6 | 8.0 | 0.00 | 0.00 | 0.00 | 53 | 1013.4 |
| 20260905174508 | 35 | 120 | 0.0 | 4.8 | 0.00 | 0.00 | 0.00 | 57 | 1013.5 |
| 20260905173006 | 35 | 240 | 0.0 | 8.0 | 0.00 | 0.00 | 0.00 | 55 | 1013.8 |
| 20260905171505 | 35 | 109 | 1.6 | 9.7 | 0.00 | 0.00 | 0.00 | 56 | 1014.1 |
| 20260905170004 | 35 | 158 | 0.0 | 8.0 | 0.00 | 0.00 | 0.00 | 56 | 1014.1 |
| 20260905164502 | 34 | 97 | 0.0 | 3.2 | 0.00 | 0.00 | 0.00 | 59 | 1014.3 |
| 20260905163059 | 33 | 308 | 1.6 | 8.0 | 0.00 | 0.00 | 0.00 | 58 | 1014.4 |
| 20260905161557 | 33 | 118 | 1.6 | 8.0 | 0.00 | 0.00 | 0.00 | 60 | 1014.3 |
| 20260905154553 | 32 | 354 | 1.6 | 8.0 | 0.00 | 0.00 | 0.00 | 62 | 1014.4 |
| 20260905153059 | 32 | 232 | 1.6 | 6.4 | 0.00 | 0.00 | 0.00 | 65 | 1014.3 |
| 20260905151548 | 32 | 191 | 1.6 | 6.4 | 0.00 | 0.00 | 0.00 | 66 | 1014.3 |
| 20260905150046 | 31 | 247 | 3.2 | 8.0 | 0.00 | 0.00 | 0.00 | 66 | 1014.3 |
| 20260905144547 | 31 | 259 | 3.2 | 8.0 | 0.00 | 0.00 | 0.00 | 68 | 1014.1 |
| 20260905143041 | 30 | 231 | 1.6 | 6.4 | 0.00 | 0.00 | 0.00 | 69 | 1014.1 |
| 20260905141537 | 30 | 246 | 3.2 | 4.8 | 0.00 | 0.00 | 0.00 | 71 | 1014.1 |
| 20260905140033 | 28 | 183 | 0.0 | 4.8 | 0.00 | 0.00 | 0.00 | 75 | 1014.2 |
| 20260905134530 | 27 | 241 | 0.0 | 6.4 | 0.00 | 0.00 | 0.00 | 78 | 1014.1 |
| 20260905133032 | 26 | 269 | 0.0 | 1.6 | 0.00 | 0.00 | 0.00 | 79 | 1014.0 |
| 20260905131533 | 26 | 264 | 0.0 | 3.2 | 0.00 | 0.00 | 0.00 | 81 | 1013.7 |
| 20260905130035 | 25 | 193 | 0.0 | 3.2 | 0.00 | 0.00 | 0.00 | 81 | 1013.5 |